When you browse on this site, cookies collect data to enhance your experience and personalize the content and advertising you see.
Visit our Privacy Policy to learn more. By continuing to use the site, you agree to this use of cookies and data.
  • In Netherlands
  • List of Countries
  • For 7 days
  • Water Temperature
  • Weather Map
  • Weather Widgets
  • user-avatar
    Login

    Hourly Weather La Louviere

    Today, 3 April, Friday

    Time Temperature Precipitation Wind Pressure Humidity
    00:00 +5°C° 0.1 mm 4 mps 751 mmHg 93%
    01:00 +4°C° 0 mm 3 mps 751 mmHg 94%
    02:00 +4°C° 0 mm 3 mps 751 mmHg 95%
    03:00 +3°C° 0 mm 3 mps 751 mmHg 95%
    04:00 +3°C° 0 mm 3 mps 751 mmHg 95%
    05:00 +4°C° 0 mm 2 mps 752 mmHg 95%
    06:00 +3°C° 0 mm 2 mps 752 mmHg 94%
    07:00 +4°C° 0 mm 3 mps 752 mmHg 87%
    08:00 +7°C° 0 mm 3 mps 753 mmHg 79%
    09:00 +8°C° 0 mm 3 mps 753 mmHg 72%
    10:00 +8°C° 0 mm 4 mps 753 mmHg 68%
    11:00 +8°C° 0 mm 4 mps 754 mmHg 65%
    12:00 +10°C° 0 mm 4 mps 754 mmHg 61%
    13:00 +8°C° 0 mm 4 mps 754 mmHg 61%
    14:00 +8°C° 0 mm 4 mps 754 mmHg 61%
    15:00 +8°C° 0 mm 4 mps 754 mmHg 62%
    16:00 +8°C° 0 mm 3 mps 754 mmHg 65%
    17:00 +7°C° 0 mm 3 mps 754 mmHg 68%
    18:00 +6°C° 0 mm 2 mps 754 mmHg 71%
    19:00 +5°C° 0 mm 2 mps 755 mmHg 74%
    20:00 +5°C° 0 mm 1 mps 755 mmHg 77%
    21:00 +4°C° 0 mm 1 mps 756 mmHg 79%
    22:00 +4°C° 0 mm 1 mps 756 mmHg 79%
    23:00 +3°C° 0 mm 1 mps 756 mmHg 79%

    Tomorrow, 4 April, Saturday

    Time Temperature Precipitation Wind Pressure Humidity
    00:00 +3°C° 0 mm 1 mps 757 mmHg 79%
    01:00 +3°C° 0 mm 1 mps 757 mmHg 80%
    02:00 +3°C° 0 mm 1 mps 757 mmHg 80%
    03:00 +2°C° 0 mm 1 mps 757 mmHg 81%
    04:00 +3°C° 0 mm 1 mps 757 mmHg 81%
    05:00 +3°C° 0 mm 1 mps 758 mmHg 80%
    06:00 +3°C° 0 mm 1 mps 758 mmHg 80%
    07:00 +5°C° 0 mm 1 mps 758 mmHg 72%
    08:00 +6°C° 0 mm 2 mps 758 mmHg 64%
    09:00 +8°C° 0 mm 2 mps 758 mmHg 56%
    10:00 +10°C° 0 mm 2 mps 758 mmHg 54%
    11:00 +12°C° 0 mm 2 mps 758 mmHg 51%
    12:00 +13°C° 0 mm 1 mps 758 mmHg 49%
    13:00 +14°C° 0 mm 1 mps 757 mmHg 48%
    14:00 +14°C° 0 mm 1 mps 757 mmHg 47%
    15:00 +15°C° 0 mm 1 mps 757 mmHg 47%
    16:00 +13°C° 0 mm 1 mps 757 mmHg 53%
    17:00 +12°C° 0 mm 1 mps 757 mmHg 59%
    18:00 +11°C° 0 mm 1 mps 757 mmHg 65%
    19:00 +10°C° 0 mm 1 mps 757 mmHg 68%
    20:00 +8°C° 0 mm 2 mps 757 mmHg 72%
    21:00 +7°C° 0 mm 2 mps 757 mmHg 76%
    22:00 +6°C° 0 mm 2 mps 757 mmHg 77%
    23:00 +5°C° 0 mm 3 mps 757 mmHg 79%

    Day after tomorrow, 5 April, Sunday

    Time Temperature Precipitation Wind Pressure Humidity
    00:00 +5°C° 0 mm 3 mps 757 mmHg 81%
    01:00 +4°C° 0 mm 3 mps 757 mmHg 81%
    02:00 +4°C° 0 mm 3 mps 757 mmHg 82%
    03:00 +4°C° 0 mm 4 mps 756 mmHg 82%
    04:00 +4°C° 0 mm 4 mps 756 mmHg 81%
    05:00 +5°C° 0 mm 4 mps 756 mmHg 81%
    06:00 +5°C° 0 mm 5 mps 756 mmHg 80%
    07:00 +7°C° 0 mm 5 mps 755 mmHg 74%
    08:00 +10°C° 0 mm 5 mps 755 mmHg 69%
    09:00 +13°C° 0 mm 6 mps 755 mmHg 64%
    10:00 +14°C° 0 mm 6 mps 755 mmHg 61%
    11:00 +16°C° 0 mm 6 mps 755 mmHg 59%
    12:00 +17°C° 0 mm 6 mps 755 mmHg 56%
    13:00 +17°C° 0 mm 6 mps 754 mmHg 56%
    14:00 +19°C° 0 mm 5 mps 754 mmHg 55%
    15:00 +19°C° 0 mm 5 mps 753 mmHg 55%
    16:00 +16°C° 0 mm 5 mps 753 mmHg 60%
    17:00 +15°C° 0 mm 4 mps 753 mmHg 66%
    18:00 +14°C° 0 mm 4 mps 753 mmHg 71%
    19:00 +13°C° 0 mm 4 mps 753 mmHg 72%
    20:00 +12°C° 0 mm 5 mps 753 mmHg 72%
    21:00 +12°C° 0 mm 5 mps 753 mmHg 72%
    22:00 +10°C° 0 mm 5 mps 753 mmHg 72%
    23:00 +10°C° 0 mm 5 mps 753 mmHg 73%

    6 April, Monday

    Time Temperature Precipitation Wind Pressure Humidity
    00:00 +9°C° 0 mm 5 mps 753 mmHg 73%
    01:00 +9°C° 0 mm 5 mps 753 mmHg 72%
    02:00 +9°C° 0 mm 5 mps 753 mmHg 71%
    03:00 +8°C° 0 mm 6 mps 752 mmHg 70%
    04:00 +8°C° 0 mm 6 mps 753 mmHg 69%
    05:00 +8°C° 0 mm 6 mps 753 mmHg 68%
    06:00 +8°C° 0 mm 6 mps 753 mmHg 68%
    07:00 +9°C° 0 mm 7 mps 753 mmHg 63%
    08:00 +11°C° 0 mm 7 mps 753 mmHg 58%
    09:00 +12°C° 0 mm 8 mps 753 mmHg 53%
    10:00 +13°C° 0 mm 8 mps 754 mmHg 53%
    11:00 +15°C° 0 mm 8 mps 754 mmHg 52%
    12:00 +16°C° 0 mm 8 mps 754 mmHg 51%
    13:00 +16°C° 0 mm 7 mps 754 mmHg 56%
    14:00 +15°C° 0 mm 7 mps 754 mmHg 60%
    15:00 +14°C° 0 mm 7 mps 755 mmHg 65%
    16:00 +13°C° 0.3 mm 6 mps 755 mmHg 73%
    17:00 +10°C° 0.3 mm 6 mps 756 mmHg 80%
    18:00 +9°C° 0.3 mm 5 mps 756 mmHg 88%
    19:00 +9°C° 0.3 mm 5 mps 757 mmHg 90%
    20:00 +10°C° 0.3 mm 4 mps 758 mmHg 92%
    21:00 +9°C° 0.3 mm 3 mps 759 mmHg 94%
    22:00 +9°C° 0 mm 3 mps 759 mmHg 94%
    23:00 +8°C° 0 mm 3 mps 760 mmHg 95%

    7 April, Tuesday

    Time Temperature Precipitation Wind Pressure Humidity
    00:00 +8°C° 0 mm 3 mps 761 mmHg 95%
    01:00 +7°C° 0 mm 3 mps 761 mmHg 95%
    02:00 +7°C° 0 mm 2 mps 762 mmHg 95%
    03:00 +6°C° 0 mm 2 mps 762 mmHg 95%
    04:00 +6°C° 0 mm 2 mps 763 mmHg 94%
    05:00 +6°C° 0 mm 2 mps 763 mmHg 92%
    06:00 +7°C° 0 mm 1 mps 764 mmHg 91%
    07:00 +9°C° 0 mm 1 mps 764 mmHg 83%
    08:00 +11°C° 0 mm 1 mps 765 mmHg 76%
    09:00 +13°C° 0 mm 1 mps 765 mmHg 68%
    10:00 +14°C° 0 mm 1 mps 765 mmHg 63%
    11:00 +15°C° 0 mm 1 mps 765 mmHg 57%
    12:00 +16°C° 0 mm 1 mps 766 mmHg 52%
    13:00 +18°C° 0 mm 1 mps 766 mmHg 50%
    14:00 +18°C° 0 mm 1 mps 765 mmHg 48%
    15:00 +18°C° 0 mm 1 mps 765 mmHg 46%
    16:00 +16°C° 0 mm 1 mps 765 mmHg 52%
    17:00 +14°C° 0 mm 1 mps 765 mmHg 57%
    18:00 +13°C° 0 mm 1 mps 765 mmHg 63%
    19:00 +12°C° 0 mm 2 mps 765 mmHg 65%
    20:00 +10°C° 0 mm 2 mps 766 mmHg 67%
    21:00 +9°C° 0 mm 2 mps 766 mmHg 69%
    22:00 +9°C° 0 mm 2 mps 766 mmHg 72%
    23:00 +8°C° 0 mm 2 mps 766 mmHg 74%

    8 April, Wednesday

    Time Temperature Precipitation Wind Pressure Humidity
    00:00 +8°C° 0 mm 2 mps 766 mmHg 77%
    01:00 +8°C° 0 mm 2 mps 766 mmHg 79%
    02:00 +7°C° 0 mm 2 mps 766 mmHg 81%
    03:00 +7°C° 0 mm 2 mps 765 mmHg 82%
    04:00 +7°C° 0 mm 2 mps 765 mmHg 84%
    05:00 +7°C° 0 mm 2 mps 765 mmHg 85%
    06:00 +7°C° 0 mm 2 mps 765 mmHg 86%
    07:00 +10°C° 0 mm 2 mps 765 mmHg 80%
    08:00 +12°C° 0 mm 3 mps 765 mmHg 74%
    09:00 +14°C° 0 mm 3 mps 764 mmHg 68%
    10:00 +17°C° 0 mm 3 mps 764 mmHg 63%
    11:00 +18°C° 0 mm 3 mps 764 mmHg 59%
    12:00 +20°C° 0 mm 3 mps 763 mmHg 54%
    13:00 +20°C° 0 mm 2 mps 763 mmHg 52%
    14:00 +21°C° 0 mm 2 mps 762 mmHg 50%
    15:00 +21°C° 0 mm 2 mps 762 mmHg 48%
    16:00 +20°C° 0 mm 2 mps 761 mmHg 54%
    17:00 +18°C° 0 mm 2 mps 761 mmHg 60%
    18:00 +17°C° 0 mm 2 mps 761 mmHg 66%
    19:00 +16°C° 0 mm 2 mps 761 mmHg 67%
    20:00 +14°C° 0 mm 3 mps 761 mmHg 68%
    21:00 +13°C° 0 mm 3 mps 761 mmHg 69%
    22:00 +12°C° 0 mm 3 mps 761 mmHg 71%
    23:00 +12°C° 0 mm 3 mps 760 mmHg 73%
    Show more